Location: Piotrkow Trybunalski
(51.4000°N, 19.6830°E)
Time: 14:36:38
(UTC+01:00)

Vanguard 2 - Pass Details

Date: 10 February 2023
Orbit: 553 x 2927 km, 32.9° (Epoch: 24 March)

Event Time Altitude Azimuth Distance (km) Brightness Sun altitude
Rises 21:41:15 0° 246° (WSW) 4,983 11.9 -44.1°
Reaches altitude 10° 21:44:30 10° 238° (WSW) 4,300 11.4 -44.5°
Enters shadow 21:48:43 24° 221° (SW) 3,658 10.8 -45.0°
Maximum altitude 21:55:19 36° 178° (S) 3,473 - -45.7°
Drops below altitude 10° 22:09:45 10° 122° (ESE) 5,715 - -47.2°
Sets 22:14:55 0° 115° (ESE) 6,779 - -47.7°
